Hourly Data Report for March 04, 2012

BAGOTVILLE A
QUEBEC

48°20'00.000" N
71°00'00.000" W
159.10 m
7060400
71727
YBG

Download Data

Hourly Data (March 2012)
Hourly Data Report for March 4, 2012
TIME
LST
Temp Definition
°C
Dew Point Definition
°C
Rel Hum Definition
%
Precip. Amount Definition
mm

Wind Dir Definition
10's deg

Wind Spd Definition
km/h
Visibility Definition
km
Stn Press Definition
kPa
Hmdx Definition


Wind Chill Definition


Weather Definition


00:00 1.4 -2.2 77   25 26 19.3 96.67     Snow Showers
01:00 1.0 -1.6 83   25 24 9.7 96.77     Snow Showers
02:00 0.0 -2.0 86   25 28 4.8 96.89   -6 Snow Showers
03:00 -0.3 -1.6 91   26 28 1.6 97.09   -7 Snow Showers,Blowing Snow
04:00 -2.8 -5.5 82   29 43 12.9 97.34   -11 Snow Showers
05:00 -4.0 -6.6 82   30 32 12.9 97.59   -12 Snow Showers
06:00 -5.1 -8.0 80   29 30 16.1 97.81   -13 Snow Showers
07:00 -7.0 -10.0 79   30 30 32.2 97.93   -16 Snow Showers
08:00 -8.6 -12.0 76   30 32 24.1 98.05   -18 Snow Showers
09:00 -9.5 -13.6 72   29 26 16.1 98.19   -18 Snow Showers
10:00 -10.1 -13.4 77   30 24 16.1 98.26   -19 Snow Showers
11:00 -10.6 -13.1 82   29 20 16.1 98.31   -19 Snow Showers
12:00 -10.4 -12.5 85   29 19 16.1 98.34   -18 Snow Showers
13:00 -10.5 -13.5 79   29 20 6.4 98.36   -18 Snow Showers
14:00 -12.0 -14.3 83   30 17 1.6 98.38   -20 Snow Showers
15:00 -11.9 -14.2 83   27 15 4.0 98.40   -19 Snow
16:00 -12.1 -14.0 86   27 11 2.4 98.46   -18 Snow
17:00 -12.6 -14.6 85   27 13 2.8 98.50   -19 Snow
18:00 -12.8 -15.3 81   27 13 2.8 98.54   -20 Snow
19:00 -12.7 -15.2 82   28 9 4.0 98.57   -18 Snow
20:00 -12.6 -14.6 85   27 7 3.2 98.57   -17 Snow
21:00 -12.5 -14.5 85   27 7 3.2 98.56   -17 Snow
22:00 -12.6 -14.6 85   26 7 3.2 98.53   -17 Snow
23:00 -12.4 -14.3 86   22 4 4.8 98.52   -15 Snow

Notes on Data Quality.

Legend

  • E = Estimated
  • M = Missing
  • NA = Not Available*
  • [empty] = Indicates an unobserved value
Date modified: